Wind_Speed
15 15 16 16 17 18 18 17 16 16 15 15 15 15 14 14 14 14 14 14 14 13 12 12 11 11 10 10 9 8 8 8 8 8 8 7 7 7 7 6 6 7 8
16 17 16 16 17 18 18 18 17 16 16 16 16 16 15 16 15 15 14 14 14 13 12 12 11 11 10 10 9 9 8 8 8 8 8 7 7 6 6 6 7 7 7
17 18 17 17 17 18 18 18 17 17 17 17 17 17 17 16 16 15 15 15 14 14 13 12 11 11 11 10 9 9 8 8 8 8 8 8 7 6 6 6 6 6 6
17 18 19 18 18 18 18 17 17 18 18 18 18 18 18 17 17 17 16 15 14 14 13 12 11 11 11 10 10 9 9 9 9 8 8 8 8 8 8 7 7 6 6
19 19 19 19 19 18 18 18 18 18 18 18 19 18 18 19 18 17 16 15 14 13 12 12 11 11 11 11 10 10 9 10 9 8 8 7 8 8 9 8 8 7 7
20 20 20 19 18 18 18 18 18 18 19 19 18 18 19 19 18 17 17 16 14 14 13 12 12 12 12 11 11 11 10 10 10 9 9 9 8 9 9 9 9 8 8
20 21 21 19 18 19 19 18 18 19 19 18 18 19 19 19 18 17 17 17 15 15 13 13 13 13 13 12 11 11 10 10 10 10 10 10 10 10 10 11 10 10 10
20 20 20 20 19 18 18 19 19 19 19 19 19 19 19 19 18 18 18 18 17 16 15 15 15 14 13 12 12 12 12 12 12 11 11 11 11 12 12 12 12 12 11
20 20 21 21 20 19 19 19 19 19 19 19 20 20 20 20 19 19 19 18 18 17 16 16 16 14 13 13 13 13 13 12 13 13 13 13 13 14 14 14 14 14 13
21 21 22 22 22 20 20 20 20 20 20 20 20 20 20 20 20 20 20 19 18 18 17 16 15 15 15 15 15 14 14 13 14 15 15 15 16 16 15 14 14 14 14
22 22 22 23 22 22 21 20 20 20 20 21 21 21 21 20 21 20 20 20 19 19 18 17 17 16 16 16 16 15 15 15 15 15 15 16 16 16 16 16 16 16 15
23 22 23 22 22 23 21 21 21 21 21 21 21 21 21 20 20 20 20 20 19 18 18 17 17 17 17 17 17 16 16 16 16 16 16 16 17 17 17 17 17 17 17
22 23 22 23 23 22 21 21 21 21 21 22 21 21 21 21 20 20 20 20 20 19 19 18 18 18 18 18 18 18 18 17 17 17 17 17 17 17 17 17 18 18 18
21 22 22 23 23 22 22 21 21 21 21 21 21 21 20 20 20 20 20 19 18 18 19 19 19 19 19 19 19 19 19 18 17 17 17 17 17 18 18 18 18 19 19
21 22 23 23 22 21 22 22 22 21 21 21 20 21 21 21 20 20 20 20 19 19 19 19 20 20 20 20 20 20 19 19 18 18 18 18 18 19 19 19 20 20 21
22 22 23 23 23 22 22 22 22 22 22 21 21 21 21 21 21 21 21 20 19 19 19 19 20 20 20 20 19 19 20 20 19 19 20 19 19 20 20 21 21 22 22
22 22 22 23 23 22 21 22 22 22 22 22 22 22 21 21 21 21 21 20 19 19 18 19 19 18 19 19 20 20 20 20 21 21 21 21 21 21 21 22 22 22 23
23 23 23 23 22 22 22 22 23 23 23 23 23 22 21 21 21 21 21 20 19 18 18 18 18 18 19 20 20 20 20 21 21 21 22 22 22 22 23 23 23 24 24
23 24 23 23 23 23 23 23 23 24 24 24 23 22 21 21 22 21 21 20 19 18 18 19 19 19 19 20 20 21 21 22 22 23 22 23 23 23 24 24 25 26 26
23 24 24 23 23 23 22 23 23 23 23 23 23 22 22 22 22 22 21 21 20 20 20 20 20 21 20 21 21 21 21 22 22 22 23 23 24 24 24 24 25 26 26
23 23 23 23 24 23 23 23 23 23 23 23 23 23 23 23 22 22 21 21 21 21 21 21 21 21 21 21 20 21 23 23 23 23 24 24 24 25 25 25 25 25 26
24 24 24 24 24 24 24 24 24 24 24 23 24 24 24 23 23 23 23 23 23 23 22 22 22 22 22 22 21 22 22 23 24 25 25 25 25 26 26 26 26 26 26
24 24 24 24 24 24 24 24 25 24 24 24 24 24 23 24 23 23 24 23 23 23 23 23 22 22 22 22 21 22 23 23 24 25 26 26 26 26 26 26 26 27 27
23 23 23 23 23 24 24 23 23 23 23 23 23 23 23 23 23 23 23 23 22 22 21 21 22 22 22 22 22 22 23 24 24 25 26 26 27 27 27 27 27 27 27
24 24 24 24 24 23 23 22 21 22 22 22 22 23 23 23 22 21 21 22 21 21 21 20 21 21 21 22 22 22 22 23 24 24 24 24 25 26 26 27 27 27 27
24 24 24 24 24 24 23 22 22 22 21 21 22 22 23 22 22 21 21 21 21 21 20 20 21 21 21 21 22 22 22 22 22 23 23 23 23 24 24 25 25 26 25
Wind_Direction
299 300 302 303 305 307 308 308 308 309 307 307 307 309 306 305 306 305 307 307 307 304 299 298 296 297 300 302 299 302 299 292 288 288 284 277 268 260 257 251 244 245 239
294 295 298 302 302 304 305 307 308 309 307 305 305 305 304 301 303 304 303 303 304 304 300 294 291 292 292 293 295 299 298 294 286 285 282 275 261 247 252 250 252 248 240
291 292 297 301 301 302 301 301 304 306 306 304 304 303 302 300 301 303 302 300 300 301 300 297 292 289 287 288 289 293 292 286 283 282 279 271 267 253 242 246 253 255 246
286 291 295 296 299 302 301 299 301 303 304 304 304 303 301 301 301 300 299 297 295 295 293 291 293 294 287 282 282 288 285 281 283 282 279 275 271 267 253 241 250 255 253
286 289 292 294 296 299 300 300 300 301 303 304 303 303 302 303 299 296 295 297 295 290 288 286 289 293 288 279 277 280 278 278 278 275 276 272 272 270 263 253 252 251 248
286 287 289 289 293 295 297 298 300 300 302 303 301 301 304 306 302 296 293 295 291 288 284 282 284 285 286 282 277 276 274 275 275 272 273 272 266 266 266 261 252 250 249
281 282 287 288 292 294 295 296 298 300 302 301 301 301 302 306 304 299 294 291 286 283 279 279 278 278 279 281 281 275 272 271 271 270 275 272 266 266 266 265 261 260 257
283 284 286 288 291 293 295 297 298 299 299 299 299 300 301 303 303 298 297 291 285 279 276 274 274 273 275 277 279 279 272 268 269 268 270 267 267 265 264 265 266 263 261
283 285 287 288 289 291 293 295 298 299 298 296 296 299 301 302 301 297 296 293 288 281 275 272 271 272 275 275 273 274 276 273 268 267 267 266 266 267 265 264 265 266 266
278 280 284 286 287 287 289 292 296 297 297 296 296 297 298 299 298 297 293 291 287 280 276 276 275 275 274 273 273 273 275 277 274 271 271 267 266 266 266 265 266 265 263
276 279 283 286 284 285 285 291 293 293 295 295 295 296 296 296 295 294 293 289 285 279 276 273 273 272 272 271 270 270 271 273 273 271 271 268 266 264 264 263 264 265 264
277 279 282 283 282 285 286 290 290 291 292 294 293 293 295 294 294 292 292 289 285 279 275 272 271 269 270 271 269 268 269 271 271 270 269 270 267 265 266 265 264 263 264
278 278 279 281 282 284 287 289 290 291 291 292 294 294 293 293 293 293 292 291 284 278 274 271 270 269 268 269 267 269 270 271 272 272 271 271 269 265 265 264 262 262 264
278 279 280 281 282 284 287 287 289 290 291 292 293 294 294 294 294 292 292 290 284 278 273 270 268 269 269 268 269 270 270 272 272 273 274 272 272 270 269 267 265 264 265
280 280 283 284 282 283 284 286 290 290 291 291 291 292 294 294 295 294 291 287 281 277 275 271 269 269 269 269 268 268 268 270 270 271 273 273 273 273 271 270 269 268 267
279 280 282 283 283 285 285 285 289 288 288 289 289 291 293 295 297 296 294 289 285 278 275 273 270 269 268 268 267 266 267 268 269 270 272 273 274 274 272 271 270 269 270
280 281 282 284 285 286 285 285 286 287 286 286 290 291 293 294 296 296 296 292 289 283 278 276 273 269 268 268 268 267 267 268 268 270 272 272 273 275 274 272 271 270 271
280 281 281 281 281 283 284 285 285 286 286 288 290 290 290 291 292 292 292 290 287 284 281 277 273 268 267 267 268 269 268 269 269 271 272 272 272 274 276 276 275 274 273
280 280 280 279 279 280 282 283 285 287 288 288 290 290 289 288 288 289 290 289 285 282 280 279 276 273 270 269 270 269 269 269 269 270 271 272 274 275 276 276 275 274 273
279 279 279 279 279 279 280 282 283 285 285 286 287 287 286 287 287 287 287 287 283 281 282 282 278 275 273 272 271 269 269 269 269 270 271 272 274 275 276 277 275 273 272
279 279 278 277 278 279 279 281 283 284 285 285 285 286 285 286 287 287 286 286 284 282 281 281 278 275 273 272 271 272 271 270 270 271 272 274 274 276 277 277 276 274 273
278 278 278 278 279 280 279 280 280 282 283 284 284 284 285 285 285 285 285 283 282 281 280 280 279 276 275 273 271 273 275 273 272 272 272 272 273 275 276 276 276 276 277
278 278 278 279 280 281 282 281 281 280 282 284 284 284 285 284 284 284 284 283 282 281 279 277 275 275 276 277 276 275 276 277 277 275 274 274 274 274 274 275 278 279 277
280 280 280 280 282 283 282 282 281 281 282 283 283 284 285 284 284 284 283 284 284 281 279 276 276 276 276 276 277 275 276 278 280 279 277 275 275 276 275 275 277 278 277
280 281 282 281 282 284 284 285 282 279 280 282 283 284 286 287 288 287 285 284 283 280 278 277 278 278 276 275 275 276 277 278 280 280 279 278 278 276 276 276 277 279 279
280 281 282 282 283 283 283 283 283 281 282 283 284 285 287 288 287 287 285 284 284 281 278 277 279 279 279 279 277 277 278 279 280 281 283 282 281 279 278 277 278 281 280
Height
5883 5881 5880 5879 5878 5877 5875 5874 5873 5871 5870 5868 5867 5866 5865 5864 5863 5861 5860 5858 5857 5856 5856 5855 5855 5855 5854 5854 5854 5853 5853 5853 5852 5852 5852 5851 5852 5853 5854 5854 5855 5855 5856
5880 5879 5878 5876 5876 5875 5873 5871 5870 5869 5867 5866 5865 5864 5862 5861 5860 5859 5857 5856 5855 5854 5853 5853 5853 5852 5852 5852 5852 5852 5852 5851 5851 5851 5851 5851 5851 5850 5852 5853 5854 5854 5855
5877 5875 5874 5873 5873 5871 5870 5869 5867 5866 5865 5863 5862 5861 5860 5858 5857 5856 5855 5854 5852 5851 5850 5850 5850 5850 5850 5850 5850 5850 5850 5850 5850 5850 5850 5850 5850 5849 5851 5852 5853 5853 5853
5874 5872 5872 5870 5869 5868 5867 5866 5864 5863 5862 5860 5859 5858 5856 5855 5854 5853 5852 5851 5850 5849 5848 5847 5847 5847 5848 5848 5848 5848 5848 5848 5848 5848 5848 5849 5849 5849 5849 5851 5852 5852 5853
5870 5869 5868 5867 5866 5865 5863 5862 5861 5860 5859 5857 5856 5854 5853 5852 5850 5849 5848 5847 5847 5846 5845 5845 5844 5845 5845 5846 5846 5846 5846 5846 5846 5847 5847 5847 5848 5848 5849 5850 5851 5852 5852
5866 5865 5864 5863 5863 5862 5860 5859 5858 5857 5855 5854 5852 5851 5850 5848 5847 5845 5845 5844 5844 5843 5843 5843 5843 5843 5843 5843 5843 5843 5844 5844 5845 5845 5845 5846 5846 5847 5848 5849 5849 5850 5851
5863 5862 5860 5858 5859 5858 5857 5855 5854 5853 5851 5850 5849 5847 5846 5845 5843 5842 5841 5840 5840 5840 5839 5839 5840 5840 5840 5840 5840 5841 5841 5841 5842 5843 5843 5843 5844 5845 5846 5847 5847 5848 5849
5859 5857 5856 5855 5855 5854 5853 5851 5850 5849 5848 5846 5845 5843 5842 5841 5839 5838 5837 5836 5836 5836 5836 5836 5836 5837 5837 5837 5837 5838 5838 5838 5839 5840 5840 5841 5841 5842 5843 5844 5845 5845 5846
5854 5854 5853 5852 5851 5850 5849 5847 5846 5845 5844 5842 5841 5839 5838 5836 5835 5834 5833 5832 5832 5832 5832 5832 5832 5833 5833 5834 5834 5834 5834 5835 5835 5836 5837 5838 5838 5839 5839 5840 5841 5843 5843
5850 5849 5848 5847 5846 5845 5844 5843 5842 5840 5839 5837 5836 5835 5834 5832 5831 5829 5828 5828 5827 5827 5828 5828 5828 5829 5829 5830 5830 5831 5831 5831 5832 5833 5833 5834 5834 5835 5836 5837 5837 5838 5840
5846 5845 5843 5842 5841 5840 5839 5838 5837 5836 5834 5833 5831 5830 5829 5827 5826 5825 5824 5823 5823 5823 5823 5823 5824 5824 5825 5825 5826 5826 5827 5828 5828 5829 5829 5830 5831 5831 5832 5833 5833 5834 5835
5840 5839 5838 5837 5836 5835 5833 5833 5832 5831 5830 5828 5827 5825 5824 5823 5821 5820 5819 5818 5817 5817 5818 5818 5819 5820 5820 5821 5821 5822 5823 5823 5824 5824 5825 5825 5826 5827 5828 5828 5829 5830 5831
5834 5833 5833 5832 5831 5829 5828 5828 5827 5826 5825 5823 5822 5821 5819 5818 5816 5815 5813 5812 5812 5812 5812 5813 5814 5815 5815 5816 5817 5817 5818 5819 5819 5820 5820 5821 5821 5822 5823 5823 5824 5825 5826
5829 5829 5828 5827 5826 5825 5824 5823 5822 5821 5820 5819 5817 5816 5815 5813 5811 5810 5808 5807 5807 5807 5807 5808 5809 5809 5810 5811 5811 5812 5813 5814 5814 5815 5815 5816 5816 5817 5817 5818 5819 5820 5821
5824 5824 5823 5822 5820 5820 5819 5817 5817 5816 5814 5813 5812 5811 5810 5808 5807 5805 5803 5802 5802 5802 5802 5802 5803 5804 5805 5805 5806 5807 5807 5808 5809 5810 5810 5811 5811 5812 5812 5813 5814 5814 5815
5820 5819 5818 5817 5815 5815 5814 5813 5812 5810 5809 5808 5807 5806 5805 5803 5802 5800 5798 5797 5796 5796 5796 5796 5797 5798 5799 5799 5800 5801 5802 5803 5804 5804 5805 5805 5806 5806 5807 5807 5808 5808 5809
5815 5814 5813 5812 5810 5809 5808 5807 5806 5805 5804 5803 5802 5801 5799 5798 5797 5795 5793 5792 5791 5791 5791 5791 5791 5792 5793 5793 5794 5795 5796 5797 5798 5799 5799 5800 5800 5800 5801 5801 5801 5802 5802
5809 5808 5807 5806 5805 5804 5803 5802 5800 5799 5798 5797 5796 5795 5794 5793 5792 5790 5788 5787 5786 5786 5785 5786 5786 5786 5787 5788 5788 5789 5790 5791 5792 5792 5793 5793 5794 5794 5794 5794 5794 5795 5795
5803 5802 5801 5800 5799 5798 5797 5796 5795 5794 5793 5791 5791 5789 5788 5787 5786 5785 5783 5782 5781 5781 5781 5781 5781 5781 5781 5782 5782 5783 5783 5784 5785 5786 5786 5787 5787 5787 5787 5787 5787 5787 5787
5796 5796 5795 5794 5793 5792 5791 5790 5789 5788 5787 5786 5785 5784 5783 5782 5781 5780 5778 5777 5777 5776 5776 5775 5775 5776 5776 5776 5776 5776 5777 5777 5778 5779 5779 5780 5780 5780 5780 5780 5780 5780 5780
5790 5789 5789 5788 5787 5786 5785 5784 5783 5782 5781 5780 5779 5778 5778 5777 5775 5774 5773 5772 5771 5771 5770 5770 5770 5770 5770 5770 5769 5770 5770 5770 5771 5772 5772 5772 5773 5773 5773 5773 5773 5773 5773
5783 5783 5782 5781 5781 5780 5779 5778 5777 5776 5775 5774 5773 5772 5772 5771 5769 5769 5767 5767 5766 5765 5764 5764 5764 5763 5763 5763 5763 5763 5763 5763 5764 5764 5764 5765 5765 5765 5765 5765 5765 5765 5765
5777 5776 5775 5775 5774 5773 5772 5771 5770 5769 5769 5768 5767 5766 5765 5764 5763 5762 5761 5760 5759 5759 5758 5757 5757 5757 5757 5756 5756 5757 5757 5757 5757 5757 5757 5757 5757 5757 5757 5757 5757 5757 5757
5770 5769 5769 5768 5767 5767 5765 5764 5763 5762 5762 5761 5761 5760 5759 5758 5757 5756 5755 5754 5753 5752 5752 5751 5750 5750 5750 5750 5750 5750 5750 5750 5749 5749 5749 5749 5749 5749 5749 5749 5749 5748 5748
5763 5763 5762 5761 5760 5760 5759 5758 5757 5756 5755 5755 5755 5754 5753 5752 5751 5749 5748 5747 5746 5745 5745 5745 5744 5744 5743 5743 5743 5743 5743 5743 5743 5742 5742 5741 5741 5741 5741 5741 5740 5740 5740
5757 5756 5755 5754 5754 5753 5753 5752 5752 5751 5750 5750 5749 5748 5747 5746 5745 5743 5742 5741 5741 5740 5739 5739 5738 5737 5737 5736 5736 5736 5736 5736 5736 5735 5735 5734 5734 5733 5733 5733 5732 5732 5732